sat.trackr.live / text

‹ back to catalog

KINEIS-1A

NORAD 60084 · 2024-114F

PAYLOAD ACTIVE UNKNOWN

§ Identity

Operator
Country
FR
Launch date
2024-06-20
Launch site
RLLB
Launch vehicle
Mass (kg)
RCS (m²)

External: N2YO · Heavens-Above · Gunter

§ Orbital elements

Epoch: 2026-09-22T23:43:06.174624Z

Period
97.25 min
Inclination
97.8901°
Eccentricity
0.0004323
Mean motion
14.80740787 rev/d
Perigee alt
624.0 km
Apogee alt
630.0 km
Semi-major
7,005.1 km
B*
6.9127e-5
RAAN
287.9394°
Arg perigee
163.8143°
Mean anomaly
196.3208°
Rev number
12,186

§ Raw data

KINEIS-1A1 60084U 24114F   26265.98826591  .00000480  00000+0  69127-4 0  99992 60084  97.8901 287.9394 0004323 163.8143 196.3208 14.80740787121867

JSON: /api/v1/satellites/60084 · /tle

For live sub-satellite position, see the globe view (requires WebGL).

§ Visibility from observer

Set your observer location to see the next 7 days of passes ≥ 10°. The values pass through the URL so the page stays shareable.

No JS? Fill the form by hand. The geolocation button needs JavaScript.

§ Radio — SatNOGS DB

ModeDescriptionDownlinkUplink
FSK AX.100 Mode 5 Mode U - Telemetry 400.657 MHz
BPSK S-band telemetry 2.261 GHz
BPSK S-band telemetry 2.266 GHz

3 transmitters · refreshed weekly from db.satnogs.org